Hourly Data Report for October 02, 2014

All times are specified in Local Standard Time (LST). Add 1 hour to adjust for Daylight Saving Time where and when it is observed.

CLYDE RIVER A
NUNAVUT

70°29'09.000" N
68°31'01.000" W
26.50 m
2400804
71090
YCY

Download Data

Hourly Data (October 2014)
Hourly Data Report for October 2, 2014
Temp Definition
°C
Dew Point Temp Definition
°C
Rel Hum Definition
%
Wind Dir Definition
10's deg

Wind Spd Definition
km/h
Visibility Definition
km
Stn Press Definition
kPa
Hmdx Definition


Wind Chill Definition


Weather Definition


TIME
00:00 Legend Double Dagger -6.8 -10.5 75 29 17 16.1 100.30   -13 LegendNANA
01:00 Legend Double Dagger -7.4 -12.0 70 LegendMM 9 16.1 100.32   -12 LegendNANA
02:00 Legend Double Dagger -6.8 -11.9 67 29 11 16.1 100.32   -12 LegendNANA
03:00 Legend Double Dagger -7.4 -12.7 66 28 17 16.1 100.33   -14 LegendNANA
04:00 Legend Double Dagger -7.6 -13.1 65 27 11 16.1 100.36   -13 LegendNANA
05:00 Legend Double Dagger -8.5 -13.4 68 27 11 16.1 100.38   -14 LegendNANA
06:00 Legend Double Dagger -8.4 -13.5 67 25 8 16.1 100.36   -13 LegendNANA
07:00 Legend Double Dagger -8.2 -13.5 66 25 11 16.1 100.36   -13 LegendNANA
08:00 Legend Double Dagger -8.1 -13.2 67 25 11 16.1 100.39   -13 LegendNANA
09:00 Legend Double Dagger -7.5 -12.6 67 29 26 16.1 100.39   -16 LegendNANA
10:00 Legend Double Dagger -6.1 -11.3 67 22 8 16.1 100.45   -10 LegendNANA
11:00 Legend Double Dagger -5.5 -11.8 62 23 15 16.1 100.46   -11 LegendNANA
12:00 Legend Double Dagger -4.5 -10.9 61 27 24 16.1 100.43   -12 LegendNANA
13:00 Legend Double Dagger -4.8 -11.4 60 26 18 16.1 100.46   -11 LegendNANA
14:00 Legend Double Dagger -4.8 -10.3 66 24 17 16.1 100.47   -11 LegendNANA
15:00 Legend Double Dagger -4.4 -10.5 63 28 30 16.1 100.44   -12 LegendNANA
16:00 Legend Double Dagger -4.8 -9.9 68 29 24 16.1 100.47   -12 LegendNANA
17:00 Legend Double Dagger -4.6 -9.7 68 29 26 16.1 100.49   -12 LegendNANA
18:00 Legend Double Dagger -4.2 -9.0 70 28 24 16.1 100.51   -11 Snow
19:00 Legend Double Dagger -4.0 -8.2 73 28 26 16.1 100.52   -11 Snow
20:00 Legend Double Dagger -4.2 -7.5 78 28 28 16.1 100.52   -12 Snow
21:00 Legend Double Dagger -4.1 -6.3 85 29 30 12.9 100.52   -12 Snow
22:00 Legend Double Dagger -3.8 -5.6 87 29 39 8.1 100.49   -12 Snow
23:00 Legend Double Dagger -3.7 -5.4 88 30 37 6.4 100.50   -12 Snow

Notes on Data Quality.

Legend

  • E = Estimated
  • M = Missing
  • NA = Not Available
  • ‡ = Partner data that is not subject to review by the National Climate Archives
Date modified: